Time,TemperatureF,DewpointF,PressureIn,WindDirection,WindDirectionDegrees,WindSpeedMPH,WindSpeedGustMPH,Humidity,HourlyPrecipIn,Conditions,Clouds,dailyrainin,SoftwareType,DateUTC
2013-05-23 00:02:00,48.0,43.7,29.96,NW,306,1.0,3.0,85,0.00,,,0.00,meteohub,2013-05-23 07:02:00,
2013-05-23 00:07:00,48.0,43.7,29.95,NW,305,0.0,3.0,85,0.00,,,0.00,meteohub,2013-05-23 07:07:00,
2013-05-23 00:12:00,48.0,43.7,29.95,NW,305,0.0,3.0,85,0.00,,,0.00,meteohub,2013-05-23 07:12:00,
2013-05-23 00:17:00,47.8,43.9,29.96,NW,304,0.0,3.0,86,0.00,,,0.00,meteohub,2013-05-23 07:17:00,
2013-05-23 00:22:00,47.8,43.9,29.96,NW,315,0.0,3.0,86,0.00,,,0.00,meteohub,2013-05-23 07:22:00,
2013-05-23 00:27:00,47.8,44.2,29.96,NW,304,1.0,6.0,87,0.00,,,0.00,meteohub,2013-05-23 07:27:00,
2013-05-23 00:32:00,47.8,44.2,29.96,NW,307,0.0,8.0,87,0.00,,,0.00,meteohub,2013-05-23 07:32:00,
2013-05-23 00:37:00,47.7,44.1,29.96,NW,307,0.0,8.0,87,0.00,,,0.00,meteohub,2013-05-23 07:37:00,
2013-05-23 00:42:00,47.7,44.2,29.95,WNW,296,4.0,8.0,88,0.00,,,0.00,meteohub,2013-05-23 07:42:00,
2013-05-23 00:47:00,47.7,44.2,29.95,NW,314,6.0,7.0,88,0.00,,,0.00,meteohub,2013-05-23 07:47:00,
2013-05-23 00:52:00,47.7,44.2,29.95,NW,312,1.0,7.0,88,0.00,,,0.00,meteohub,2013-05-23 07:52:00,
2013-05-23 00:57:00,47.5,44.1,29.95,NNW,340,0.0,8.0,88,0.00,,,0.00,meteohub,2013-05-23 07:57:00,
2013-05-23 01:02:00,47.5,44.4,29.96,NNW,336,1.0,9.0,89,0.00,,,0.00,meteohub,2013-05-23 08:02:00,
2013-05-23 01:07:00,47.5,44.4,29.96,WNW,302,0.0,10.0,89,0.00,,,0.00,meteohub,2013-05-23 08:07:00,
2013-05-23 01:12:00,47.3,44.2,29.96,NW,326,0.0,10.0,89,0.00,,,0.00,meteohub,2013-05-23 08:12:00,
2013-05-23 01:17:00,47.3,44.2,29.96,NW,326,1.0,10.0,89,0.00,,,0.00,meteohub,2013-05-23 08:17:00,
2013-05-23 01:22:00,47.3,44.2,29.96,NNW,327,0.0,12.0,89,0.00,,,0.00,meteohub,2013-05-23 08:22:00,
2013-05-23 01:27:00,47.3,44.2,29.95,WNW,290,0.0,12.0,89,0.00,,,0.00,meteohub,2013-05-23 08:27:00,
2013-05-23 01:32:00,47.3,44.6,29.95,WNW,297,1.0,9.0,90,0.00,,,0.00,meteohub,2013-05-23 08:32:00,
2013-05-23 01:37:00,47.1,44.1,29.95,NW,304,0.0,9.0,89,0.00,,,0.00,meteohub,2013-05-23 08:37:00,
2013-05-23 01:42:00,47.1,44.1,29.95,NW,313,1.0,8.0,89,0.00,,,0.00,meteohub,2013-05-23 08:42:00,
2013-05-23 01:47:00,47.1,44.1,29.95,WNW,287,1.0,7.0,89,0.00,,,0.00,meteohub,2013-05-23 08:47:00,
2013-05-23 01:52:00,47.1,44.1,29.95,WNW,285,4.0,9.0,89,0.00,,,0.00,meteohub,2013-05-23 08:52:00,
2013-05-23 01:57:00,47.1,44.1,29.95,West,270,3.0,9.0,89,0.00,,,0.00,meteohub,2013-05-23 08:57:00,
2013-05-23 02:02:00,47.3,44.2,29.95,NW,316,3.0,9.0,89,0.00,,,0.00,meteohub,2013-05-23 09:02:00,
2013-05-23 02:07:00,47.1,44.1,29.94,WNW,302,0.0,8.0,89,0.00,,,0.00,meteohub,2013-05-23 09:07:00,
2013-05-23 02:12:00,47.1,44.1,29.94,WNW,296,0.0,8.0,89,0.00,,,0.00,meteohub,2013-05-23 09:12:00,
2013-05-23 02:17:00,47.3,44.2,29.94,NW,305,1.0,10.0,89,0.00,,,0.00,meteohub,2013-05-23 09:17:00,
2013-05-23 02:22:00,47.3,44.2,29.94,WNW,283,0.0,13.0,89,0.00,,,0.00,meteohub,2013-05-23 09:22:00,
2013-05-23 02:27:00,47.3,44.2,29.95,WNW,288,4.0,13.0,89,0.00,,,0.00,meteohub,2013-05-23 09:27:00,
2013-05-23 02:32:00,47.3,43.9,29.94,WNW,291,1.0,13.0,88,0.00,,,0.00,meteohub,2013-05-23 09:32:00,
2013-05-23 02:37:00,47.3,43.9,29.94,NW,304,0.0,13.0,88,0.00,,,0.00,meteohub,2013-05-23 09:37:00,
2013-05-23 02:43:00,47.3,43.9,29.94,NW,315,0.0,13.0,88,0.00,,,0.00,meteohub,2013-05-23 09:43:00,
2013-05-23 02:48:00,47.3,43.9,29.95,WNW,288,3.0,13.0,88,0.00,,,0.00,meteohub,2013-05-23 09:48:00,
2013-05-23 02:53:00,47.1,43.7,29.95,NW,310,2.0,9.0,88,0.00,,,0.00,meteohub,2013-05-23 09:53:00,
2013-05-23 02:58:00,47.1,44.1,29.94,NW,326,0.0,7.0,89,0.00,,,0.00,meteohub,2013-05-23 09:58:00,
2013-05-23 03:03:00,47.1,44.1,29.94,West,279,1.0,10.0,89,0.00,,,0.00,meteohub,2013-05-23 10:03:00,
2013-05-23 03:08:00,46.9,43.9,29.94,WNW,302,0.0,10.0,89,0.00,,,0.00,meteohub,2013-05-23 10:08:00,
2013-05-23 03:13:00,46.9,43.9,29.94,West,277,2.0,11.0,89,0.00,,,0.00,meteohub,2013-05-23 10:13:00,
2013-05-23 03:18:00,46.9,43.9,29.94,West,264,10.0,12.0,89,0.00,,,0.00,meteohub,2013-05-23 10:18:00,
2013-05-23 03:23:00,46.9,43.9,29.94,WNW,292,3.0,12.0,89,0.00,,,0.00,meteohub,2013-05-23 10:23:00,
2013-05-23 03:28:00,46.9,43.9,29.94,WNW,288,0.0,12.0,89,0.00,,,0.00,meteohub,2013-05-23 10:28:00,
2013-05-23 03:33:00,47.1,44.1,29.94,West,276,4.0,14.0,89,0.00,,,0.00,meteohub,2013-05-23 10:33:00,
2013-05-23 03:38:00,46.9,43.9,29.94,NW,323,11.0,14.0,89,0.00,,,0.00,meteohub,2013-05-23 10:38:00,
2013-05-23 03:43:00,46.9,43.9,29.94,West,267,4.0,17.0,89,0.00,,,0.00,meteohub,2013-05-23 10:43:00,
2013-05-23 03:48:00,46.9,43.9,29.94,NW,314,6.0,17.0,89,0.00,,,0.00,meteohub,2013-05-23 10:48:00,
2013-05-23 03:53:00,47.1,44.1,29.95,NW,319,4.0,17.0,89,0.00,,,0.00,meteohub,2013-05-23 10:53:00,
2013-05-23 03:58:00,46.9,43.9,29.95,WNW,302,10.0,21.0,89,0.00,,,0.00,meteohub,2013-05-23 10:58:00,
2013-05-23 04:03:00,46.9,43.9,29.95,NW,309,19.0,21.0,89,0.00,,,0.00,meteohub,2013-05-23 11:03:00,
2013-05-23 04:09:00,47.1,44.1,29.94,WNW,293,9.0,21.0,89,0.00,,,0.00,meteohub,2013-05-23 11:09:00,
2013-05-23 04:14:00,47.1,44.1,29.94,WNW,302,0.0,20.0,89,0.00,,,0.00,meteohub,2013-05-23 11:14:00,
2013-05-23 04:19:00,46.9,43.9,29.94,WNW,297,5.0,20.0,89,0.00,,,0.00,meteohub,2013-05-23 11:19:00,
2013-05-23 04:24:00,47.1,44.1,29.95,WNW,299,5.0,16.0,89,0.00,,,0.00,meteohub,2013-05-23 11:24:00,
2013-05-23 04:29:00,46.9,43.9,29.95,WNW,298,9.0,17.0,89,0.00,,,0.00,meteohub,2013-05-23 11:29:00,
2013-05-23 04:34:00,46.9,43.9,29.94,West,270,13.0,17.0,89,0.00,,,0.00,meteohub,2013-05-23 11:34:00,
2013-05-23 04:39:00,46.9,43.9,29.94,NW,319,1.0,17.0,89,0.00,,,0.00,meteohub,2013-05-23 11:39:00,
2013-05-23 04:44:00,46.9,43.9,29.94,WNW,283,4.0,16.0,89,0.00,,,0.00,meteohub,2013-05-23 11:44:00,
2013-05-23 04:49:00,46.9,43.9,29.94,NW,321,7.0,17.0,89,0.00,,,0.00,meteohub,2013-05-23 11:49:00,
2013-05-23 04:54:00,46.9,43.9,29.94,NW,312,5.0,17.0,89,0.00,,,0.00,meteohub,2013-05-23 11:54:00,
2013-05-23 04:59:00,46.9,43.9,29.94,NNW,346,10.0,17.0,89,0.00,,,0.00,meteohub,2013-05-23 11:59:00,
2013-05-23 05:04:00,46.9,43.5,29.94,West,260,7.0,17.0,88,0.00,,,0.00,meteohub,2013-05-23 12:04:00,
2013-05-23 05:09:00,46.9,43.5,29.95,NW,324,9.0,17.0,88,0.00,,,0.00,meteohub,2013-05-23 12:09:00,
2013-05-23 05:14:00,46.9,43.5,29.94,West,276,6.0,15.0,88,0.00,,,0.00,meteohub,2013-05-23 12:14:00,
2013-05-23 05:19:00,46.9,43.3,29.95,WNW,299,1.0,15.0,87,0.00,,,0.00,meteohub,2013-05-23 12:19:00,
2013-05-23 05:24:00,46.9,43.5,29.95,NW,304,1.0,15.0,88,0.00,,,0.00,meteohub,2013-05-23 12:24:00,
2013-05-23 05:29:00,46.9,43.5,29.95,NW,314,11.0,14.0,88,0.00,,,0.00,meteohub,2013-05-23 12:29:00,
2013-05-23 05:34:00,46.9,43.5,29.95,NW,309,7.0,14.0,88,0.00,,,0.00,meteohub,2013-05-23 12:34:00,
2013-05-23 05:39:00,46.9,43.3,29.95,WNW,295,7.0,13.0,87,0.00,,,0.00,meteohub,2013-05-23 12:39:00,
2013-05-23 05:44:00,46.9,43.3,29.95,NW,317,8.0,13.0,87,0.00,,,0.00,meteohub,2013-05-23 12:44:00,
2013-05-23 05:49:00,46.9,43.5,29.95,NW,309,10.0,11.0,88,0.00,,,0.00,meteohub,2013-05-23 12:49:00,
2013-05-23 05:54:00,46.9,43.5,29.95,West,276,7.0,11.0,88,0.00,,,0.00,meteohub,2013-05-23 12:54:00,
2013-05-23 05:59:00,46.9,43.3,29.95,NW,307,13.0,14.0,87,0.00,,,0.00,meteohub,2013-05-23 12:59:00,
2013-05-23 06:04:00,46.9,43.3,29.95,WNW,297,4.0,14.0,87,0.00,,,0.00,meteohub,2013-05-23 13:04:00,
2013-05-23 06:10:00,46.9,43.3,29.95,WNW,283,1.0,14.0,87,0.00,,,0.00,meteohub,2013-05-23 13:10:00,
2013-05-23 06:15:00,46.8,43.2,29.95,NW,311,7.0,14.0,87,0.00,,,0.00,meteohub,2013-05-23 13:15:00,
2013-05-23 06:20:00,46.8,43.2,29.96,NW,308,10.0,13.0,87,0.00,,,0.00,meteohub,2013-05-23 13:20:00,
2013-05-23 06:25:00,46.9,43.3,29.96,West,276,0.0,13.0,87,0.00,,,0.00,meteohub,2013-05-23 13:25:00,
2013-05-23 06:30:00,46.9,43.3,29.96,NW,304,0.0,13.0,87,0.00,,,0.00,meteohub,2013-05-23 13:30:00,
2013-05-23 06:35:00,46.9,43.3,29.96,West,275,7.0,11.0,87,0.00,,,0.00,meteohub,2013-05-23 13:35:00,
2013-05-23 06:40:00,46.9,43.3,29.96,NW,308,5.0,13.0,87,0.00,,,0.00,meteohub,2013-05-23 13:40:00,
2013-05-23 06:45:00,47.1,43.5,29.96,WNW,293,0.0,13.0,87,0.00,,,0.00,meteohub,2013-05-23 13:45:00,
2013-05-23 06:50:00,47.1,43.5,29.96,WNW,302,8.0,13.0,87,0.00,,,0.00,meteohub,2013-05-23 13:50:00,
2013-05-23 06:55:00,47.3,43.7,29.96,WNW,298,7.0,13.0,87,0.00,,,0.00,meteohub,2013-05-23 13:55:00,
2013-05-23 07:00:00,47.3,43.7,29.96,WNW,293,0.0,13.0,87,0.00,,,0.00,meteohub,2013-05-23 14:00:00,
2013-05-23 07:05:00,47.5,43.9,29.96,WNW,283,3.0,13.0,87,0.00,,,0.00,meteohub,2013-05-23 14:05:00,
2013-05-23 07:10:00,47.5,43.9,29.97,NW,308,5.0,12.0,87,0.00,,,0.00,meteohub,2013-05-23 14:10:00,
2013-05-23 07:15:00,47.7,43.7,29.97,WNW,294,0.0,10.0,86,0.00,,,0.00,meteohub,2013-05-23 14:15:00,
2013-05-23 07:20:00,47.8,43.9,29.97,NW,311,1.0,9.0,86,0.00,,,0.00,meteohub,2013-05-23 14:20:00,
2013-05-23 07:25:00,48.0,44.1,29.97,NW,304,2.0,9.0,86,0.00,,,0.00,meteohub,2013-05-23 14:25:00,
2013-05-23 07:30:00,48.0,44.1,29.97,WNW,286,0.0,10.0,86,0.00,,,0.00,meteohub,2013-05-23 14:30:00,
2013-05-23 07:35:00,48.2,43.9,29.97,NW,309,4.0,10.0,85,0.00,,,0.00,meteohub,2013-05-23 14:35:00,
2013-05-23 07:40:00,48.4,44.1,29.97,WNW,300,0.0,10.0,85,0.00,,,0.00,meteohub,2013-05-23 14:40:00,
2013-05-23 07:45:00,48.6,43.9,29.97,WNW,294,0.0,9.0,84,0.00,,,0.00,meteohub,2013-05-23 14:45:00,
2013-05-23 07:50:00,48.7,43.9,29.97,WNW,295,4.0,9.0,83,0.00,,,0.00,meteohub,2013-05-23 14:50:00,
2013-05-23 07:56:00,48.9,43.7,29.97,NNW,338,5.0,9.0,82,0.00,,,0.00,meteohub,2013-05-23 14:56:00,
2013-05-23 08:01:00,49.1,43.5,29.97,West,281,6.0,9.0,81,0.00,,,0.00,meteohub,2013-05-23 15:01:00,
2013-05-23 08:06:00,49.3,43.3,29.97,WNW,291,0.0,9.0,80,0.00,,,0.00,meteohub,2013-05-23 15:06:00,
2013-05-23 08:11:00,49.5,43.9,29.98,West,262,2.0,9.0,81,0.00,,,0.00,meteohub,2013-05-23 15:11:00,
2013-05-23 08:16:00,49.6,44.4,29.98,NW,307,7.0,11.0,82,0.00,,,0.00,meteohub,2013-05-23 15:16:00,
2013-05-23 08:21:00,49.5,44.2,29.98,NW,311,0.0,11.0,82,0.00,,,0.00,meteohub,2013-05-23 15:21:00,
2013-05-23 08:26:00,49.5,44.6,29.98,WNW,285,0.0,11.0,83,0.00,,,0.00,meteohub,2013-05-23 15:26:00,
2013-05-23 08:31:00,49.6,44.8,29.98,West,281,5.0,10.0,83,0.00,,,0.00,meteohub,2013-05-23 15:31:00,
2013-05-23 08:36:00,49.8,44.6,29.98,WNW,300,0.0,11.0,82,0.00,,,0.00,meteohub,2013-05-23 15:36:00,
2013-05-23 08:41:00,49.8,44.2,29.98,West,276,0.0,11.0,81,0.00,,,0.00,meteohub,2013-05-23 15:41:00,
2013-05-23 08:46:00,49.8,44.2,29.98,WNW,295,3.0,11.0,81,0.00,,,0.00,meteohub,2013-05-23 15:46:00,
2013-05-23 08:51:00,49.8,43.9,29.99,West,275,6.0,10.0,80,0.00,,,0.00,meteohub,2013-05-23 15:51:00,
2013-05-23 08:56:00,50.2,44.6,29.99,West,265,10.0,12.0,81,0.00,,,0.00,meteohub,2013-05-23 15:56:00,
2013-05-23 09:01:00,50.4,44.8,29.99,West,260,7.0,13.0,81,0.00,,,0.00,meteohub,2013-05-23 16:01:00,
2013-05-23 09:06:00,50.5,45.0,29.99,NNW,331,1.0,13.0,81,0.00,,,0.00,meteohub,2013-05-23 16:06:00,
2013-05-23 09:11:00,50.5,45.0,29.99,NW,311,5.0,13.0,81,0.00,,,0.00,meteohub,2013-05-23 16:11:00,
2013-05-23 09:16:00,51.1,45.1,29.99,NW,309,4.0,13.0,80,0.00,,,0.00,meteohub,2013-05-23 16:16:00,
2013-05-23 09:21:00,50.7,44.4,29.99,NNW,342,0.0,15.0,79,0.00,,,0.00,meteohub,2013-05-23 16:21:00,
2013-05-23 09:26:00,50.7,44.8,29.99,WNW,285,0.0,15.0,80,0.00,,,0.00,meteohub,2013-05-23 16:26:00,
2013-05-23 09:31:00,51.1,45.1,29.99,NW,315,11.0,15.0,80,0.00,,,0.00,meteohub,2013-05-23 16:31:00,
2013-05-23 09:36:00,51.3,45.0,29.99,WNW,285,4.0,15.0,79,0.00,,,0.00,meteohub,2013-05-23 16:36:00,
2013-05-23 09:42:00,51.3,45.0,29.99,NW,317,12.0,15.0,79,0.00,,,0.00,meteohub,2013-05-23 16:42:00,
2013-05-23 09:47:00,51.4,44.4,29.99,NW,314,10.0,15.0,77,0.00,,,0.00,meteohub,2013-05-23 16:47:00,
2013-05-23 09:52:00,51.1,44.4,30.00,WNW,291,6.0,15.0,78,0.00,,,0.00,meteohub,2013-05-23 16:52:00,
2013-05-23 09:57:00,51.3,44.2,30.00,NW,323,5.0,15.0,77,0.00,,,0.00,meteohub,2013-05-23 16:57:00,
2013-05-23 10:02:00,51.6,44.6,29.99,West,273,13.0,15.0,77,0.00,,,0.00,meteohub,2013-05-23 17:02:00,
2013-05-23 10:07:00,52.0,44.6,30.00,WNW,288,0.0,13.0,76,0.00,,,0.00,meteohub,2013-05-23 17:07:00,
2013-05-23 10:12:00,52.3,44.2,30.00,NW,315,0.0,13.0,74,0.00,,,0.00,meteohub,2013-05-23 17:12:00,
2013-05-23 10:17:00,52.5,44.4,30.00,NW,312,6.0,13.0,74,0.00,,,0.00,meteohub,2013-05-23 17:17:00,
2013-05-23 10:22:00,52.5,44.4,30.00,WNW,297,4.0,14.0,74,0.00,,,0.00,meteohub,2013-05-23 17:22:00,
2013-05-23 10:27:00,52.5,44.1,30.00,NW,313,1.0,14.0,73,0.00,,,0.00,meteohub,2013-05-23 17:27:00,
2013-05-23 10:32:00,52.9,44.4,30.00,NNW,331,4.0,14.0,73,0.00,,,0.00,meteohub,2013-05-23 17:32:00,
2013-05-23 10:37:00,52.9,44.4,30.00,West,269,4.0,12.0,73,0.00,,,0.00,meteohub,2013-05-23 17:37:00,
2013-05-23 10:42:00,52.5,44.4,30.00,WNW,286,4.0,13.0,74,0.00,,,0.00,meteohub,2013-05-23 17:42:00,
2013-05-23 10:47:00,52.9,44.4,30.00,WNW,285,9.0,13.0,73,0.00,,,0.00,meteohub,2013-05-23 17:47:00,
2013-05-23 10:52:00,53.1,45.0,30.01,NW,323,2.0,13.0,74,0.00,,,0.00,meteohub,2013-05-23 17:52:00,
2013-05-23 10:57:00,53.1,43.9,30.01,NW,314,5.0,13.0,71,0.00,,,0.00,meteohub,2013-05-23 17:57:00,
2013-05-23 11:02:00,53.2,44.8,30.01,West,279,4.0,15.0,73,0.00,,,0.00,meteohub,2013-05-23 18:02:00,
2013-05-23 11:08:00,53.4,44.2,30.00,NW,307,6.0,15.0,71,0.00,,,0.00,meteohub,2013-05-23 18:08:00,
2013-05-23 11:13:00,53.1,43.5,30.01,West,270,6.0,15.0,70,0.00,,,0.00,meteohub,2013-05-23 18:13:00,
2013-05-23 11:18:00,53.1,43.5,30.00,West,275,0.0,13.0,70,0.00,,,0.00,meteohub,2013-05-23 18:18:00,
2013-05-23 11:23:00,53.8,44.6,30.01,NW,308,1.0,16.0,71,0.00,,,0.00,meteohub,2013-05-23 18:23:00,
2013-05-23 11:28:00,54.1,44.6,30.01,WNW,288,7.0,16.0,70,0.00,,,0.00,meteohub,2013-05-23 18:28:00,
2013-05-23 11:33:00,54.3,45.1,30.01,West,278,1.0,16.0,71,0.00,,,0.00,meteohub,2013-05-23 18:33:00,
2013-05-23 11:38:00,54.7,44.8,30.02,NW,314,4.0,10.0,69,0.00,,,0.00,meteohub,2013-05-23 18:38:00,
2013-05-23 11:43:00,54.9,44.4,30.02,West,270,6.0,10.0,68,0.00,,,0.00,meteohub,2013-05-23 18:43:00,
2013-05-23 11:48:00,54.7,44.8,30.02,WNW,298,0.0,14.0,69,0.00,,,0.00,meteohub,2013-05-23 18:48:00,
2013-05-23 11:53:00,54.9,45.0,30.02,West,259,8.0,14.0,69,0.00,,,0.00,meteohub,2013-05-23 18:53:00,
2013-05-23 11:58:00,55.0,45.1,30.02,WSW,251,2.0,14.0,69,0.00,,,0.00,meteohub,2013-05-23 18:58:00,
2013-05-23 12:03:00,54.7,44.2,30.02,WNW,287,4.0,14.0,68,0.00,,,0.00,meteohub,2013-05-23 19:03:00,
2013-05-23 12:08:00,54.1,44.2,30.02,WNW,292,1.0,14.0,69,0.00,,,0.00,meteohub,2013-05-23 19:08:00,
2013-05-23 12:13:00,54.3,44.8,30.03,NW,314,3.0,13.0,70,0.00,,,0.00,meteohub,2013-05-23 19:13:00,
2013-05-23 12:18:00,54.5,44.2,30.03,NW,311,6.0,12.0,68,0.00,,,0.00,meteohub,2013-05-23 19:18:00,
2013-05-23 12:23:00,54.5,44.6,30.03,WNW,297,1.0,14.0,69,0.00,,,0.00,meteohub,2013-05-23 19:23:00,
2013-05-23 12:28:00,54.7,45.1,30.03,WNW,297,1.0,14.0,70,0.00,,,0.00,meteohub,2013-05-23 19:28:00,
2013-05-23 12:33:00,54.9,45.0,30.03,WNW,285,3.0,14.0,69,0.00,,,0.00,meteohub,2013-05-23 19:33:00,
2013-05-23 12:38:00,54.9,44.4,30.03,NW,304,7.0,13.0,68,0.00,,,0.00,meteohub,2013-05-23 19:38:00,
2013-05-23 12:44:00,55.0,44.2,30.02,WNW,282,9.0,13.0,67,0.00,,,0.00,meteohub,2013-05-23 19:44:00,
2013-05-23 12:49:00,55.0,44.6,30.03,West,265,10.0,13.0,68,0.00,,,0.00,meteohub,2013-05-23 19:49:00,
2013-05-23 12:54:00,55.0,44.6,30.03,West,269,2.0,13.0,68,0.00,,,0.00,meteohub,2013-05-23 19:54:00,
2013-05-23 12:59:00,55.2,44.4,30.03,West,274,3.0,13.0,67,0.00,,,0.00,meteohub,2013-05-23 19:59:00,
2013-05-23 13:04:00,55.2,44.4,30.03,WNW,300,3.0,13.0,67,0.00,,,0.00,meteohub,2013-05-23 20:04:00,
2013-05-23 13:09:00,55.6,44.8,30.02,NW,307,2.0,11.0,67,0.00,,,0.00,meteohub,2013-05-23 20:09:00,
2013-05-23 13:14:00,55.6,45.1,30.03,West,274,1.0,11.0,68,0.00,,,0.00,meteohub,2013-05-23 20:14:00,
2013-05-23 13:19:00,55.8,45.0,30.03,West,276,1.0,11.0,67,0.00,,,0.00,meteohub,2013-05-23 20:19:00,
2013-05-23 13:24:00,55.6,45.5,30.03,West,278,0.0,11.0,69,0.00,,,0.00,meteohub,2013-05-23 20:24:00,
2013-05-23 13:29:00,55.9,45.1,30.03,West,269,5.0,11.0,67,0.00,,,0.00,meteohub,2013-05-23 20:29:00,
2013-05-23 13:34:00,55.6,45.1,30.03,WNW,290,5.0,11.0,68,0.00,,,0.00,meteohub,2013-05-23 20:34:00,
2013-05-23 13:39:00,55.2,45.7,30.04,West,279,7.0,13.0,70,0.00,,,0.00,meteohub,2013-05-23 20:39:00,
2013-05-23 13:44:00,55.6,46.0,30.04,WNW,295,8.0,13.0,70,0.00,,,0.00,meteohub,2013-05-23 20:44:00,
2013-05-23 13:49:00,55.0,45.5,30.04,NW,307,1.0,11.0,70,0.00,,,0.00,meteohub,2013-05-23 20:49:00,
2013-05-23 13:54:00,55.4,45.9,30.04,WNW,285,7.0,12.0,70,0.00,,,0.00,meteohub,2013-05-23 20:54:00,
2013-05-23 13:59:00,55.0,45.5,30.04,WNW,283,2.0,12.0,70,0.00,,,0.00,meteohub,2013-05-23 20:59:00,
2013-05-23 14:04:00,55.2,46.0,30.04,WNW,283,5.0,16.0,71,0.00,,,0.00,meteohub,2013-05-23 21:04:00,
2013-05-23 14:09:00,54.9,45.7,30.04,West,278,1.0,16.0,71,0.00,,,0.00,meteohub,2013-05-23 21:09:00,
2013-05-23 14:14:00,54.3,45.5,30.04,West,273,2.0,16.0,72,0.00,,,0.00,meteohub,2013-05-23 21:14:00,
2013-05-23 14:19:00,54.3,45.5,30.04,NW,317,9.0,15.0,72,0.00,,,0.00,meteohub,2013-05-23 21:19:00,
2013-05-23 14:24:00,54.0,45.9,30.04,West,277,8.0,18.0,74,0.00,,,0.00,meteohub,2013-05-23 21:24:00,
2013-05-23 14:29:00,53.8,45.7,30.03,NW,315,7.0,18.0,74,0.00,,,0.00,meteohub,2013-05-23 21:29:00,
2013-05-23 14:34:00,54.3,46.2,30.04,WNW,285,1.0,18.0,74,0.00,,,0.00,meteohub,2013-05-23 21:34:00,
2013-05-23 14:39:00,54.9,46.8,30.04,NW,317,3.0,16.0,74,0.00,,,0.00,meteohub,2013-05-23 21:39:00,
2013-05-23 14:45:00,55.4,46.9,30.04,West,264,2.0,15.0,73,0.00,,,0.00,meteohub,2013-05-23 21:45:00,
2013-05-23 14:50:00,55.8,46.9,30.04,West,273,2.0,14.0,72,0.00,,,0.00,meteohub,2013-05-23 21:50:00,
2013-05-23 14:55:00,55.8,46.9,30.03,West,272,1.0,14.0,72,0.00,,,0.00,meteohub,2013-05-23 21:55:00,
2013-05-23 15:00:00,55.8,46.9,30.04,West,276,3.0,12.0,72,0.00,,,0.00,meteohub,2013-05-23 22:00:00,
2013-05-23 15:05:00,55.2,46.4,30.03,NW,313,4.0,14.0,72,0.00,,,0.00,meteohub,2013-05-23 22:05:00,
2013-05-23 15:10:00,55.2,46.8,30.03,WNW,286,1.0,14.0,73,0.00,,,0.00,meteohub,2013-05-23 22:10:00,
2013-05-23 15:15:00,55.0,46.6,30.03,West,265,3.0,14.0,73,0.00,,,0.00,meteohub,2013-05-23 22:15:00,
2013-05-23 15:20:00,55.2,47.1,30.03,WNW,289,3.0,20.0,74,0.00,,,0.00,meteohub,2013-05-23 22:20:00,
2013-05-23 15:25:00,54.9,46.8,30.03,NW,315,14.0,20.0,74,0.00,,,0.00,meteohub,2013-05-23 22:25:00,
2013-05-23 15:30:00,54.7,46.9,30.03,WNW,288,9.0,20.0,75,0.00,,,0.00,meteohub,2013-05-23 22:30:00,
2013-05-23 15:35:00,54.9,47.1,30.03,NW,312,10.0,19.0,75,0.00,,,0.00,meteohub,2013-05-23 22:35:00,
2013-05-23 15:40:00,54.7,46.6,30.02,NW,308,13.0,19.0,74,0.00,,,0.00,meteohub,2013-05-23 22:40:00,
2013-05-23 15:45:00,54.7,46.9,30.03,West,266,1.0,18.0,75,0.00,,,0.00,meteohub,2013-05-23 22:45:00,
2013-05-23 15:50:00,55.6,47.1,30.02,West,278,10.0,18.0,73,0.00,,,0.00,meteohub,2013-05-23 22:50:00,
2013-05-23 15:55:00,55.9,46.8,30.02,WNW,287,8.0,16.0,71,0.00,,,0.00,meteohub,2013-05-23 22:55:00,
2013-05-23 16:00:00,55.6,46.8,30.02,NW,312,4.0,18.0,72,0.00,,,0.00,meteohub,2013-05-23 23:00:00,
2013-05-23 16:05:00,55.8,46.9,30.02,WNW,283,17.0,18.0,72,0.00,,,0.00,meteohub,2013-05-23 23:05:00,
2013-05-23 16:10:00,55.6,46.8,30.02,WNW,293,4.0,19.0,72,0.00,,,0.00,meteohub,2013-05-23 23:10:00,
2013-05-23 16:15:00,55.8,46.9,30.03,WNW,285,10.0,19.0,72,0.00,,,0.00,meteohub,2013-05-23 23:15:00,
2013-05-23 16:20:00,55.4,46.9,30.02,West,276,3.0,20.0,73,0.00,,,0.00,meteohub,2013-05-23 23:20:00,
2013-05-23 16:25:00,55.2,46.8,30.02,NNW,329,5.0,20.0,73,0.00,,,0.00,meteohub,2013-05-23 23:25:00,
2013-05-23 16:30:00,55.2,46.8,30.03,WNW,297,1.0,20.0,73,0.00,,,0.00,meteohub,2013-05-23 23:30:00,
2013-05-23 16:35:00,55.0,46.9,30.03,West,279,9.0,16.0,74,0.00,,,0.00,meteohub,2013-05-23 23:35:00,
2013-05-23 16:40:00,54.9,46.8,30.03,NW,321,6.0,17.0,74,0.00,,,0.00,meteohub,2013-05-23 23:40:00,
2013-05-23 16:45:00,54.9,46.8,30.03,WNW,299,7.0,19.0,74,0.00,,,0.00,meteohub,2013-05-23 23:45:00,
2013-05-23 16:51:00,54.9,47.1,30.03,NW,312,6.0,19.0,75,0.00,,,0.00,meteohub,2013-05-23 23:51:00,
2013-05-23 16:56:00,54.3,46.9,30.02,West,273,7.0,19.0,76,0.00,,,0.00,meteohub,2013-05-23 23:56:00,
2013-05-23 17:01:00,54.3,46.6,30.03,NW,314,2.0,19.0,75,0.00,,,0.00,meteohub,2013-05-24 00:01:00,
2013-05-23 17:06:00,54.3,46.6,30.02,NW,310,6.0,19.0,75,0.00,,,0.00,meteohub,2013-05-24 00:06:00,
2013-05-23 17:11:00,54.5,47.1,30.02,NW,324,5.0,19.0,76,0.00,,,0.00,meteohub,2013-05-24 00:11:00,
2013-05-23 17:16:00,54.5,46.8,30.02,NW,322,2.0,16.0,75,0.00,,,0.00,meteohub,2013-05-24 00:16:00,
2013-05-23 17:21:00,54.7,46.6,30.02,NW,316,2.0,16.0,74,0.00,,,0.00,meteohub,2013-05-24 00:21:00,
2013-05-23 17:26:00,54.3,46.6,30.02,NW,322,13.0,21.0,75,0.00,,,0.00,meteohub,2013-05-24 00:26:00,
2013-05-23 17:31:00,54.3,46.9,30.03,WNW,283,4.0,21.0,76,0.00,,,0.00,meteohub,2013-05-24 00:31:00,
2013-05-23 17:36:00,54.5,47.1,30.03,West,270,10.0,21.0,76,0.00,,,0.00,meteohub,2013-05-24 00:36:00,
2013-05-23 17:41:00,54.1,46.8,30.02,NW,309,4.0,19.0,76,0.00,,,0.00,meteohub,2013-05-24 00:41:00,
2013-05-23 17:46:00,53.4,46.0,30.02,WNW,300,5.0,19.0,76,0.00,,,0.00,meteohub,2013-05-24 00:46:00,
2013-05-23 17:51:00,53.2,46.6,30.02,NW,310,3.0,19.0,78,0.00,,,0.00,meteohub,2013-05-24 00:51:00,
2013-05-23 17:56:00,53.2,46.6,30.02,WNW,285,6.0,16.0,78,0.00,,,0.00,meteohub,2013-05-24 00:56:00,
2013-05-23 18:01:00,53.6,46.9,30.02,WNW,293,8.0,16.0,78,0.00,,,0.00,meteohub,2013-05-24 01:01:00,
2013-05-23 18:06:00,53.6,46.6,30.01,WNW,302,4.0,16.0,77,0.00,,,0.00,meteohub,2013-05-24 01:06:00,
2013-05-23 18:11:00,53.8,46.8,30.01,WNW,285,6.0,18.0,77,0.00,,,0.00,meteohub,2013-05-24 01:11:00,
2013-05-23 18:16:00,54.0,46.9,30.01,NW,311,10.0,18.0,77,0.00,,,0.00,meteohub,2013-05-24 01:16:00,
2013-05-23 18:21:00,54.0,47.3,30.01,NNW,342,1.0,13.0,78,0.00,,,0.00,meteohub,2013-05-24 01:21:00,
2013-05-23 18:26:00,54.1,47.5,30.01,WNW,293,5.0,11.0,78,0.00,,,0.00,meteohub,2013-05-24 01:26:00,
2013-05-23 18:32:00,53.6,46.6,30.01,WNW,301,3.0,11.0,77,0.00,,,0.00,meteohub,2013-05-24 01:32:00,
2013-05-23 18:37:00,53.2,46.6,30.01,West,272,10.0,19.0,78,0.00,,,0.00,meteohub,2013-05-24 01:37:00,
2013-05-23 18:42:00,53.2,46.9,30.01,WNW,297,2.0,19.0,79,0.00,,,0.00,meteohub,2013-05-24 01:42:00,
2013-05-23 18:47:00,53.2,46.6,30.01,NNW,337,8.0,19.0,78,0.00,,,0.00,meteohub,2013-05-24 01:47:00,
2013-05-23 18:52:00,52.9,46.6,30.01,West,281,1.0,21.0,79,0.00,,,0.00,meteohub,2013-05-24 01:52:00,
2013-05-23 18:57:00,52.9,46.6,30.01,West,278,3.0,21.0,79,0.00,,,0.00,meteohub,2013-05-24 01:57:00,
2013-05-23 19:02:00,53.1,47.1,30.01,NNW,333,2.0,21.0,80,0.00,,,0.00,meteohub,2013-05-24 02:02:00,
2013-05-23 19:07:00,53.1,46.8,30.01,North,354,5.0,19.0,79,0.00,,,0.00,meteohub,2013-05-24 02:07:00,
2013-05-23 19:12:00,53.1,46.8,30.01,NNW,337,7.0,16.0,79,0.00,,,0.00,meteohub,2013-05-24 02:12:00,
2013-05-23 19:17:00,53.1,46.8,30.01,NNW,332,0.0,16.0,79,0.00,,,0.00,meteohub,2013-05-24 02:17:00,
2013-05-23 19:22:00,53.1,46.8,30.00,NW,311,2.0,17.0,79,0.00,,,0.00,meteohub,2013-05-24 02:22:00,
2013-05-23 19:27:00,53.1,46.8,30.00,NW,315,1.0,17.0,79,0.00,,,0.00,meteohub,2013-05-24 02:27:00,
2013-05-23 19:32:00,52.9,46.6,30.00,WNW,291,1.0,17.0,79,0.00,,,0.00,meteohub,2013-05-24 02:32:00,
2013-05-23 19:37:00,52.9,46.9,30.01,NW,315,3.0,14.0,80,0.00,,,0.00,meteohub,2013-05-24 02:37:00,
2013-05-23 19:42:00,52.9,46.9,30.01,NW,319,2.0,8.0,80,0.00,,,0.00,meteohub,2013-05-24 02:42:00,
2013-05-23 19:47:00,52.7,46.8,30.01,NW,313,0.0,8.0,80,0.00,,,0.00,meteohub,2013-05-24 02:47:00,
2013-05-23 19:52:00,52.7,46.8,30.01,NW,314,2.0,8.0,80,0.00,,,0.00,meteohub,2013-05-24 02:52:00,
2013-05-23 19:57:00,52.7,46.4,30.01,NW,316,2.0,8.0,79,0.00,,,0.00,meteohub,2013-05-24 02:57:00,
2013-05-23 20:02:00,52.5,46.6,30.01,NW,315,0.0,5.0,80,0.00,,,0.00,meteohub,2013-05-24 03:02:00,
2013-05-23 20:07:00,52.3,46.4,30.00,NW,316,1.0,5.0,80,0.00,,,0.00,meteohub,2013-05-24 03:07:00,
2013-05-23 20:12:00,52.3,46.4,30.00,NW,326,4.0,5.0,80,0.00,,,0.00,meteohub,2013-05-24 03:12:00,
2013-05-23 20:17:00,52.3,46.0,30.00,NW,306,2.0,6.0,79,0.00,,,0.00,meteohub,2013-05-24 03:17:00,
2013-05-23 20:22:00,52.3,46.0,30.00,NNW,327,1.0,7.0,79,0.00,,,0.00,meteohub,2013-05-24 03:22:00,
2013-05-23 20:27:00,52.2,45.9,30.00,NW,319,1.0,7.0,79,0.00,,,0.00,meteohub,2013-05-24 03:27:00,
2013-05-23 20:32:00,52.2,45.9,30.00,NW,321,0.0,5.0,79,0.00,,,0.00,meteohub,2013-05-24 03:32:00,
2013-05-23 20:37:00,52.2,45.9,30.00,NW,305,0.0,5.0,79,0.00,,,0.00,meteohub,2013-05-24 03:37:00,
2013-05-23 20:42:00,52.2,45.9,30.01,West,277,1.0,5.0,79,0.00,,,0.00,meteohub,2013-05-24 03:42:00,
2013-05-23 20:47:00,52.2,45.9,30.01,WNW,286,2.0,4.0,79,0.00,,,0.00,meteohub,2013-05-24 03:47:00,
2013-05-23 20:52:00,51.6,45.7,30.01,WNW,290,2.0,4.0,80,0.00,,,0.00,meteohub,2013-05-24 03:52:00,
2013-05-23 20:57:00,51.4,45.9,30.01,WNW,292,0.0,4.0,81,0.00,,,0.00,meteohub,2013-05-24 03:57:00,
2013-05-23 21:01:00,51.1,45.9,30.01,NW,309,1.0,4.0,82,0.00,,,0.00,meteohub,2013-05-24 04:01:00,
2013-05-23 21:02:00,51.1,45.9,30.01,WNW,288,0.0,4.0,82,0.00,,,0.00,meteohub,2013-05-24 04:02:00,
2013-05-23 21:03:00,51.1,46.0,30.01,NW,309,1.0,4.0,83,0.00,,,0.00,meteohub,2013-05-24 04:03:00,
2013-05-23 21:08:00,50.7,46.0,30.01,WNW,290,1.0,4.0,84,0.00,,,0.00,meteohub,2013-05-24 04:08:00,
2013-05-23 21:13:00,50.4,45.7,30.01,WNW,286,3.0,4.0,84,0.00,,,0.00,meteohub,2013-05-24 04:13:00,
2013-05-23 21:18:00,50.2,45.9,30.02,WNW,293,1.0,4.0,85,0.00,,,0.00,meteohub,2013-05-24 04:18:00,
2013-05-23 21:23:00,49.8,45.9,30.02,WNW,302,3.0,4.0,86,0.00,,,0.00,meteohub,2013-05-24 04:23:00,
2013-05-23 21:28:00,49.6,45.7,30.02,WNW,284,0.0,8.0,86,0.00,,,0.00,meteohub,2013-05-24 04:28:00,
2013-05-23 21:33:00,49.5,45.7,30.02,NNW,335,8.0,8.0,87,0.00,,,0.00,meteohub,2013-05-24 04:33:00,
2013-05-23 21:38:00,49.3,45.5,30.02,WNW,296,0.0,8.0,87,0.00,,,0.00,meteohub,2013-05-24 04:38:00,
2013-05-23 21:43:00,49.3,45.5,30.02,NW,315,2.0,8.0,87,0.00,,,0.00,meteohub,2013-05-24 04:43:00,
2013-05-23 21:48:00,49.1,45.3,30.02,WNW,285,0.0,8.0,87,0.00,,,0.00,meteohub,2013-05-24 04:48:00,
2013-05-23 21:53:00,49.1,45.7,30.02,NW,321,1.0,7.0,88,0.00,,,0.00,meteohub,2013-05-24 04:53:00,
2013-05-23 21:58:00,48.9,45.5,30.02,WNW,303,1.0,7.0,88,0.00,,,0.00,meteohub,2013-05-24 04:58:00,
2013-05-23 22:03:00,48.9,45.5,30.02,NNW,336,3.0,7.0,88,0.00,,,0.00,meteohub,2013-05-24 05:03:00,
2013-05-23 22:09:00,48.9,45.5,30.02,WNW,283,2.0,6.0,88,0.00,,,0.00,meteohub,2013-05-24 05:09:00,
2013-05-23 22:14:00,48.9,45.5,30.03,WNW,290,1.0,6.0,88,0.00,,,0.00,meteohub,2013-05-24 05:14:00,
2013-05-23 22:19:00,48.7,45.3,30.02,NNW,329,1.0,6.0,88,0.00,,,0.00,meteohub,2013-05-24 05:19:00,
2013-05-23 22:24:00,48.7,45.3,30.02,NW,307,1.0,6.0,88,0.00,,,0.00,meteohub,2013-05-24 05:24:00,
2013-05-23 22:29:00,48.7,45.3,30.02,WNW,295,1.0,6.0,88,0.00,,,0.00,meteohub,2013-05-24 05:29:00,
2013-05-23 22:34:00,48.7,45.3,30.02,WNW,282,2.0,6.0,88,0.00,,,0.00,meteohub,2013-05-24 05:34:00,
2013-05-23 22:39:00,48.9,45.5,30.02,West,276,0.0,4.0,88,0.00,,,0.00,meteohub,2013-05-24 05:39:00,
2013-05-23 22:44:00,48.9,45.5,30.02,West,276,0.0,3.0,88,0.00,,,0.00,meteohub,2013-05-24 05:44:00,
2013-05-23 22:49:00,48.9,45.5,30.02,West,276,0.0,3.0,88,0.00,,,0.00,meteohub,2013-05-24 05:49:00,
2013-05-23 22:54:00,49.1,45.3,30.02,West,276,0.0,2.0,87,0.00,,,0.00,meteohub,2013-05-24 05:54:00,
2013-05-23 22:59:00,49.1,45.3,30.02,West,276,0.0,1.0,87,0.00,,,0.00,meteohub,2013-05-24 05:59:00,
2013-05-23 23:04:00,49.1,45.3,30.02,West,276,0.0,1.0,87,0.00,,,0.00,meteohub,2013-05-24 06:04:00,
2013-05-23 23:09:00,48.9,45.1,30.02,West,276,0.0,1.0,87,0.00,,,0.00,meteohub,2013-05-24 06:09:00,
2013-05-23 23:14:00,49.1,45.3,30.02,West,276,0.0,1.0,87,0.00,,,0.00,meteohub,2013-05-24 06:14:00,
2013-05-23 23:19:00,48.9,45.1,30.01,West,276,0.0,0.0,87,0.00,,,0.00,meteohub,2013-05-24 06:19:00,
2013-05-23 23:24:00,48.9,45.1,30.01,West,276,0.0,0.0,87,0.00,,,0.00,meteohub,2013-05-24 06:24:00,
2013-05-23 23:29:00,48.9,45.1,30.01,West,276,0.0,0.0,87,0.00,,,0.00,meteohub,2013-05-24 06:29:00,
2013-05-23 23:34:00,48.9,45.1,30.01,West,276,0.0,0.0,87,0.00,,,0.00,meteohub,2013-05-24 06:34:00,
2013-05-23 23:39:00,48.7,45.0,30.01,West,276,0.0,0.0,87,0.00,,,0.00,meteohub,2013-05-24 06:39:00,
2013-05-23 23:44:00,48.6,44.8,30.01,West,276,0.0,0.0,87,0.00,,,0.00,meteohub,2013-05-24 06:44:00,
2013-05-23 23:49:00,48.6,45.1,30.01,West,276,0.0,0.0,88,0.00,,,0.00,meteohub,2013-05-24 06:49:00,
2013-05-23 23:54:00,48.6,45.1,30.01,West,276,0.0,0.0,88,0.00,,,0.00,meteohub,2013-05-24 06:54:00,
2013-05-23 23:59:00,48.6,45.1,30.01,West,276,0.0,0.0,88,0.00,,,0.00,meteohub,2013-05-24 06:59:00,